| time (UTC) | temp F | wind direction | speed MPH | gust MPH | rain 1hr in | rain 24hr in | rain mn in | humidity % | barometer mb |
| 20260505221518 | 61 | 0.0 | 3.0 | 0.00 | 0.00 | 0.00 | 70 | 1015.6 | |
| 20260505220517 | 61 | 315 | 1.0 | 4.0 | 0.00 | 0.00 | 0.00 | 71 | 1015.7 |
| 20260505215538 | 60 | 293 | 1.0 | 4.0 | 0.00 | 0.00 | 0.00 | 72 | 1015.8 |
| 20260505214517 | 60 | 338 | 2.0 | 5.0 | 0.00 | 0.00 | 0.00 | 73 | 1015.8 |
| 20260505213517 | 60 | 270 | 3.0 | 9.0 | 0.00 | 0.00 | 0.00 | 72 | 1015.9 |
| 20260505212517 | 60 | 293 | 1.0 | 6.0 | 0.00 | 0.00 | 0.00 | 72 | 1016.0 |
| 20260505211538 | 60 | 248 | 1.0 | 7.0 | 0.00 | 0.00 | 0.00 | 71 | 1015.9 |
| 20260505210517 | 60 | 0 | 1.0 | 4.0 | 0.00 | 0.00 | 0.00 | 72 | 1015.9 |
| 20260505205537 | 60 | 293 | 1.0 | 4.0 | 0.00 | 0.00 | 0.00 | 72 | 1015.9 |
| 20260505204538 | 59 | 0.0 | 0.0 | 0.00 | 0.00 | 0.00 | 76 | 1016.0 | |
| 20260505203517 | 58 | 315 | 1.0 | 4.0 | 0.00 | 0.00 | 0.00 | 76 | 1015.9 |
| 20260505202517 | 58 | 0.0 | 2.0 | 0.00 | 0.00 | 0.00 | 76 | 1016.1 | |
| 20260505201537 | 58 | 0.0 | 2.0 | 0.00 | 0.00 | 0.00 | 77 | 1016.2 | |
| 20260505200538 | 58 | 45 | 1.0 | 4.0 | 0.00 | 0.00 | 0.00 | 77 | 1016.2 |
| 20260505195517 | 57 | 0.0 | 0.0 | 0.00 | 0.00 | 0.00 | 77 | 1016.3 | |
| 20260505194517 | 57 | 0.0 | 2.0 | 0.00 | 0.00 | 0.00 | 77 | 1016.3 | |
| 20260505193517 | 57 | 315 | 1.0 | 3.0 | 0.00 | 0.00 | 0.00 | 77 | 1016.4 |
| 20260505192517 | 57 | 0.0 | 0.0 | 0.00 | 0.00 | 0.00 | 78 | 1016.4 | |
| 20260505191517 | 57 | 0.0 | 0.0 | 0.00 | 0.00 | 0.00 | 78 | 1016.3 | |
| 20260505190516 | 56 | 0.0 | 0.0 | 0.00 | 0.00 | 0.00 | 79 | 1016.3 | |
| 20260505185517 | 56 | 0.0 | 1.0 | 0.00 | 0.00 | 0.00 | 80 | 1016.3 | |
| 20260505184517 | 55 | 0.0 | 1.0 | 0.00 | 0.00 | 0.00 | 81 | 1016.3 | |
| 20260505183517 | 55 | 0.0 | 2.0 | 0.00 | 0.00 | 0.00 | 82 | 1016.3 | |
| 20260505182517 | 56 | 315 | 4.0 | 10.0 | 0.00 | 0.00 | 0.00 | 78 | 1016.3 |
| 20260505181517 | 56 | 338 | 1.0 | 3.0 | 0.00 | 0.00 | 0.00 | 78 | 1016.2 |
| 20260505180537 | 56 | 338 | 1.0 | 4.0 | 0.00 | 0.00 | 0.00 | 77 | 1016.1 |
| 20260505175517 | 56 | 0.0 | 2.0 | 0.00 | 0.00 | 0.00 | 77 | 1016.0 | |
| 20260505174516 | 56 | 0.0 | 3.0 | 0.00 | 0.00 | 0.00 | 77 | 1015.8 | |
| 20260505173617 | 56 | 315 | 1.0 | 5.0 | 0.00 | 0.00 | 0.00 | 76 | 1015.7 |
| 20260505172536 | 56 | 0.0 | 2.0 | 0.00 | 0.00 | 0.00 | 76 | 1015.6 | |
| 20260505171516 | 56 | 0.0 | 2.0 | 0.00 | 0.00 | 0.00 | 76 | 1015.6 | |
| 20260505170516 | 56 | 0.0 | 2.0 | 0.00 | 0.00 | 0.00 | 76 | 1015.6 | |
| 20260505165516 | 56 | 0.0 | 3.0 | 0.00 | 0.00 | 0.00 | 76 | 1015.5 | |
| 20260505164516 | 56 | 270 | 1.0 | 6.0 | 0.00 | 0.00 | 0.00 | 76 | 1015.5 |
| 20260505163516 | 56 | 0.0 | 2.0 | 0.00 | 0.00 | 0.00 | 76 | 1015.5 | |
| 20260505162516 | 56 | 315 | 1.0 | 3.0 | 0.00 | 0.00 | 0.00 | 76 | 1015.4 |
| 20260505161516 | 56 | 293 | 1.0 | 4.0 | 0.00 | 0.00 | 0.00 | 76 | 1015.3 |
| 20260505160516 | 56 | 0.0 | 3.0 | 0.00 | 0.00 | 0.00 | 76 | 1015.2 | |
| 20260505152516 | 55 | 0.0 | 2.0 | 0.00 | 0.00 | 0.00 | 78 | 1015.1 | |
| 20260505151516 | 54 | 0.0 | 0.0 | 0.00 | 0.00 | 0.00 | 78 | 1015.0 | |
| 20260505150516 | 54 | 0.0 | 0.0 | 0.00 | 0.00 | 0.00 | 78 | 1015.1 | |
| 20260505140518 | 54 | 0.0 | 0.0 | 0.00 | 0.00 | 0.00 | 79 | 1014.8 | |
| 20260505124517 | 53 | 0.0 | 0.0 | 0.00 | 0.00 | 0.00 | 78 | 1014.5 | |
| 20260505123517 | 53 | 0.0 | 0.0 | 0.00 | 0.00 | 0.00 | 78 | 1014.5 | |
| 20260505122517 | 53 | 0.0 | 0.0 | 0.00 | 0.00 | 0.00 | 78 | 1014.7 | |
| 20260505121517 | 54 | 0.0 | 0.0 | 0.00 | 0.00 | 0.00 | 78 | 1014.6 | |
| 20260505120537 | 54 | 0.0 | 0.0 | 0.00 | 0.00 | 0.00 | 78 | 1014.7 | |
| 20260505115517 | 54 | 0.0 | 1.0 | 0.00 | 0.00 | 0.00 | 78 | 1014.8 | |
| 20260505114517 | 54 | 0.0 | 0.0 | 0.00 | 0.00 | 0.00 | 77 | 1014.7 | |
| 20260505113537 | 54 | 0.0 | 1.0 | 0.00 | 0.00 | 0.00 | 77 | 1014.6 | |
| 20260505112517 | 54 | 0.0 | 0.0 | 0.00 | 0.00 | 0.00 | 77 | 1014.7 | |
| 20260505111517 | 54 | 0.0 | 1.0 | 0.00 | 0.00 | 0.00 | 76 | 1014.6 | |
| 20260505110538 | 54 | 0.0 | 1.0 | 0.00 | 0.00 | 0.00 | 76 | 1014.8 | |
| 20260505101536 | 54 | 0.0 | 2.0 | 0.00 | 0.00 | 0.00 | 76 | 1014.6 | |
| 20260505100516 | 54 | 338 | 1.0 | 8.0 | 0.00 | 0.00 | 0.00 | 76 | 1014.7 |
| 20260505095516 | 54 | 0.0 | 4.0 | 0.00 | 0.00 | 0.00 | 76 | 1014.8 | |
| 20260505094516 | 54 | 0.0 | 0.0 | 0.00 | 0.00 | 0.00 | 76 | 1014.6 | |
| 20260505093617 | 54 | 0.0 | 3.0 | 0.00 | 0.00 | 0.00 | 76 | 1014.8 | |
| 20260505092516 | 55 | 0.0 | 5.0 | 0.00 | 0.00 | 0.00 | 76 | 1014.9 | |
| 20260505091517 | 55 | 270 | 1.0 | 7.0 | 0.00 | 0.00 | 0.00 | 77 | 1014.8 |
| 20260505090516 | 55 | 315 | 1.0 | 5.0 | 0.00 | 0.00 | 0.00 | 77 | 1015.0 |
| 20260505085537 | 55 | 338 | 2.0 | 7.0 | 0.00 | 0.00 | 0.00 | 77 | 1015.2 |
| 20260505084516 | 55 | 315 | 1.0 | 6.0 | 0.00 | 0.00 | 0.00 | 76 | 1015.3 |
| 20260505083537 | 55 | 293 | 4.0 | 8.0 | 0.00 | 0.00 | 0.00 | 75 | 1015.3 |
| 20260505082536 | 55 | 315 | 4.0 | 10.0 | 0.00 | 0.00 | 0.00 | 75 | 1015.4 |
| 20260505081516 | 55 | 338 | 3.0 | 8.0 | 0.00 | 0.00 | 0.00 | 75 | 1015.4 |
| 20260505080517 | 56 | 315 | 2.0 | 8.0 | 0.00 | 0.00 | 0.00 | 75 | 1015.4 |
| 20260505075516 | 56 | 0.0 | 5.0 | 0.00 | 0.00 | 0.00 | 75 | 1015.5 | |
| 20260505074516 | 56 | 315 | 2.0 | 8.0 | 0.00 | 0.00 | 0.00 | 75 | 1015.5 |
| 20260505073516 | 56 | 0.0 | 6.0 | 0.00 | 0.00 | 0.00 | 76 | 1015.4 | |
| 20260505072516 | 56 | 338 | 2.0 | 8.0 | 0.00 | 0.00 | 0.00 | 76 | 1015.3 |
| 20260505071516 | 56 | 338 | 2.0 | 9.0 | 0.00 | 0.00 | 0.00 | 76 | 1015.3 |
| 20260505070516 | 56 | 338 | 2.0 | 8.0 | 0.00 | 0.00 | 0.00 | 76 | 1015.2 |
| 20260505065517 | 56 | 315 | 4.0 | 9.0 | 0.00 | 0.00 | 0.00 | 76 | 1015.1 |
| 20260505064537 | 56 | 315 | 3.0 | 10.0 | 0.00 | 0.00 | 0.00 | 76 | 1015.1 |
| 20260505063517 | 56 | 338 | 1.0 | 7.0 | 0.00 | 0.00 | 0.00 | 75 | 1015.1 |
| 20260505062517 | 56 | 338 | 2.0 | 5.0 | 0.00 | 0.00 | 0.00 | 75 | 1015.0 |
| 20260505061517 | 56 | 0 | 1.0 | 9.0 | 0.00 | 0.00 | 0.00 | 75 | 1015.0 |
| 20260505060517 | 56 | 293 | 3.0 | 8.0 | 0.00 | 0.00 | 0.00 | 75 | 1014.9 |
| 20260505055517 | 57 | 315 | 2.0 | 8.0 | 0.00 | 0.00 | 0.00 | 75 | 1014.9 |
| 20260505054517 | 57 | 315 | 2.0 | 6.0 | 0.00 | 0.00 | 0.00 | 76 | 1015.0 |
| 20260505053517 | 57 | 338 | 3.0 | 9.0 | 0.00 | 0.00 | 0.00 | 75 | 1015.2 |
| 20260505052517 | 57 | 315 | 3.0 | 9.0 | 0.00 | 0.00 | 0.00 | 74 | 1015.3 |
| 20260505051517 | 57 | 0 | 2.0 | 9.0 | 0.00 | 0.00 | 0.00 | 75 | 1015.4 |
| 20260505050516 | 57 | 315 | 1.0 | 6.0 | 0.00 | 0.00 | 0.00 | 75 | 1015.4 |
| 20260505041516 | 58 | 338 | 1.0 | 5.0 | 0.00 | 0.00 | 0.00 | 72 | 1014.7 |
| 20260505040516 | 58 | 315 | 2.0 | 11.0 | 0.00 | 0.00 | 0.00 | 70 | 1014.7 |
| 20260505035516 | 58 | 315 | 2.0 | 8.0 | 0.00 | 0.00 | 0.00 | 72 | 1014.6 |
| 20260505034516 | 58 | 315 | 3.0 | 5.0 | 0.00 | 0.00 | 0.00 | 70 | 1014.4 |
| 20260505033516 | 59 | 315 | 3.0 | 10.0 | 0.00 | 0.00 | 0.00 | 69 | 1014.3 |
| 20260505032517 | 59 | 338 | 2.0 | 8.0 | 0.00 | 0.00 | 0.00 | 67 | 1014.1 |
| 20260505031536 | 59 | 0.0 | 2.0 | 0.00 | 0.00 | 0.00 | 65 | 1014.0 | |
| 20260505030538 | 59 | 315 | 4.0 | 8.0 | 0.00 | 0.00 | 0.00 | 65 | 1013.9 |
| 20260505025516 | 59 | 338 | 4.0 | 9.0 | 0.00 | 0.00 | 0.00 | 65 | 1014.1 |
| 20260505024516 | 60 | 315 | 4.0 | 9.0 | 0.00 | 0.00 | 0.00 | 65 | 1014.1 |
| 20260505023516 | 60 | 315 | 5.0 | 9.0 | 0.00 | 0.00 | 0.00 | 64 | 1014.0 |
| 20260505022516 | 60 | 338 | 5.0 | 12.0 | 0.00 | 0.00 | 0.00 | 63 | 1014.0 |
| 20260505021516 | 60 | 315 | 6.0 | 12.0 | 0.00 | 0.00 | 0.00 | 63 | 1013.8 |
| 20260505020516 | 61 | 293 | 5.0 | 11.0 | 0.00 | 0.00 | 0.00 | 62 | 1013.9 |
| 20260505015517 | 61 | 315 | 6.0 | 13.0 | 0.00 | 0.00 | 0.00 | 62 | 1013.9 |
| 20260505014536 | 61 | 293 | 4.0 | 9.0 | 0.00 | 0.00 | 0.00 | 62 | 1013.8 |
| 20260505013517 | 61 | 338 | 6.0 | 12.0 | 0.00 | 0.00 | 0.00 | 61 | 1013.8 |
| 20260505012516 | 61 | 338 | 6.0 | 12.0 | 0.00 | 0.00 | 0.00 | 61 | 1013.8 |
| 20260505011517 | 61 | 315 | 6.0 | 13.0 | 0.00 | 0.00 | 0.00 | 62 | 1014.0 |
| 20260505010516 | 62 | 315 | 6.0 | 12.0 | 0.00 | 0.00 | 0.00 | 62 | 1014.0 |
| 20260505005516 | 62 | 338 | 7.0 | 12.0 | 0.00 | 0.00 | 0.00 | 62 | 1014.2 |
| 20260505004516 | 62 | 293 | 7.0 | 14.0 | 0.00 | 0.00 | 0.00 | 61 | 1014.2 |
| 20260505003536 | 62 | 315 | 6.0 | 15.0 | 0.00 | 0.00 | 0.00 | 61 | 1014.3 |
| 20260505002515 | 63 | 338 | 6.0 | 13.0 | 0.00 | 0.00 | 0.00 | 61 | 1014.3 |
| 20260505001518 | 62 | 315 | 7.0 | 12.0 | 0.00 | 0.00 | 0.00 | 62 | 1014.2 |
| 20260505000518 | 63 | 315 | 5.0 | 12.0 | 0.00 | 0.00 | 0.00 | 61 | 1014.1 |
| 20260504235518 | 63 | 315 | 5.0 | 12.0 | 0.00 | 0.00 | 0.00 | 60 | 1014.1 |
| 20260504234517 | 64 | 293 | 5.0 | 13.0 | 0.00 | 0.00 | 0.00 | 59 | 1013.9 |
| 20260504233518 | 64 | 338 | 7.0 | 14.0 | 0.00 | 0.00 | 0.00 | 60 | 1013.9 |
| 20260504232517 | 64 | 338 | 5.0 | 11.0 | 0.00 | 0.00 | 0.00 | 59 | 1014.0 |
| 20260504231519 | 64 | 270 | 6.0 | 12.0 | 0.00 | 0.00 | 0.00 | 59 | 1013.9 |
| 20260504230518 | 64 | 315 | 6.0 | 13.0 | 0.00 | 0.00 | 0.00 | 59 | 1014.1 |
| 20260504225517 | 65 | 338 | 5.0 | 14.0 | 0.00 | 0.00 | 0.00 | 59 | 1014.0 |
| 20260504224517 | 65 | 293 | 4.0 | 11.0 | 0.00 | 0.00 | 0.00 | 58 | 1014.0 |
| 20260504223517 | 65 | 315 | 6.0 | 12.0 | 0.00 | 0.00 | 0.00 | 58 | 1014.1 |
| 20260504222517 | 65 | 270 | 4.0 | 11.0 | 0.00 | 0.00 | 0.00 | 57 | 1014.2 |